Weather History for Bainbridge, GA

Change the Weather History Date:

Saturday, February 23, 2013

  Actual Average (KMAI) Record (KMAI)
Temperature  
Mean Temperature 65 °F 56 °F  
Max Temperature 71 °F 68 °F 78 °F (2011)
Min Temperature 59 °F 44 °F 30 °F (1999)
Degree Days  
Heating Degree Days 0    
Month to date heating degree days  
Since 1 July heating degree days  
Cooling Degree Days 0    
Month to date cooling degree days  
Year to date cooling degree days  
Growing Degree Days 15 (Base 50)    
Moisture  
Dew Point 65 °F    
Average Humidity 96    
Maximum Humidity 100    
Minimum Humidity 88    
Precipitation  
Precipitation 0.00 in 0.21 in 1.61 in (2013)
Month to date precipitation 3.99  
Year to date precipitation 9.03  
Sea Level Pressure  
Sea Level Pressure 29.89 in    
Wind  
Wind Speed 4 mph (SSW)    
Max Wind Speed 13 mph    
Max Gust Speed 22 mph    
Visibility 7 miles    
Events Fog , Rain , Thunderstorm    
T = Trace of Precipitation, MM = Missing Value Source: NWS Daily Summary

Daily Weather History Graph

Daily Weather History Graph

Search for Another Location

Airport:

Trip Planner

Search our weather history database for the weather conditions in past years. The results will help you decide how hot, cold, wet, or windy it might be!

Date:

Astronomy

Feb. 23, 2013 Rise Set
Actual Time 7:11 AM EST 6:32 PM EST
Civil Twilight 6:46 AM EST 6:57 PM EST
Nautical Twilight 6:18 AM EST 7:25 PM EST
Astronomical Twilight 5:50 AM EST 7:53 PM EST
Moon 4:46 PM EST (2/23) 5:28 AM EST (2/23)
Length of Visible Light 12h 10m
Length of Day
11h 21m
Waxing Gibbous, 95% of the Moon is Illuminated
Feb 23
Waxing Gibbous
Feb 25
Full
Mar 4
Last Quarter
Mar 11
New
Mar 19
First Quarter

Hourly Weather History & Observations

Time (EST) Temp. Dew Point Humidity Pressure Visibility Wind Dir Wind Speed Gust Speed Precip Events Conditions
12:15 AM 64.4 °F 64.4 °F 100% 29.94 in 10.0 mi East 3.5 mph - N/A   Overcast
12:35 AM 64.4 °F 64.4 °F 100% 29.93 in 10.0 mi ESE 4.6 mph - N/A   Overcast
12:55 AM 64.4 °F 64.4 °F 100% 29.93 in 10.0 mi ESE 4.6 mph - N/A   Overcast
1:15 AM 64.4 °F 64.4 °F 100% 29.93 in 10.0 mi SE 4.6 mph - N/A   Overcast
1:35 AM 64.4 °F 64.4 °F 100% 29.92 in 10.0 mi Calm Calm - N/A   Overcast
1:55 AM 64.4 °F 64.4 °F 100% 29.92 in 10.0 mi SSE 4.6 mph - N/A   Overcast
2:15 AM 64.4 °F 64.4 °F 100% 29.91 in 10.0 mi South 4.6 mph - N/A   Overcast
2:35 AM 68.0 °F 66.2 °F 94% 29.90 in 10.0 mi South 3.5 mph - N/A   Overcast
2:55 AM 68.0 °F 66.2 °F 94% 29.90 in 5.0 mi SSW 4.6 mph - N/A   Overcast
3:15 AM 68.0 °F 68.0 °F 100% 29.88 in 5.0 mi SSW 3.5 mph - N/A   Overcast
3:35 AM 69.8 °F 68.0 °F 94% 29.87 in 5.0 mi South 5.8 mph - N/A   Overcast
3:55 AM 69.8 °F 68.0 °F 94% 29.87 in 5.0 mi SSW 5.8 mph - N/A   Overcast
4:15 AM 71.6 °F 69.8 °F 94% 29.87 in 7.0 mi SSW 6.9 mph - N/A   Overcast
4:35 AM 71.6 °F 69.8 °F 94% 29.87 in 7.0 mi SSW 9.2 mph - N/A   Overcast
5:15 AM 71.6 °F 69.8 °F 94% 29.87 in 7.0 mi SW 5.8 mph - N/A   Overcast
5:35 AM 71.6 °F 69.8 °F 94% 29.88 in 5.0 mi SW 5.8 mph - N/A   Overcast
5:55 AM 71.6 °F 69.8 °F 94% 29.88 in 5.0 mi SSW 4.6 mph - N/A   Overcast
6:15 AM 71.6 °F 69.8 °F 94% 29.89 in 7.0 mi SSW 5.8 mph - N/A   Overcast
6:35 AM 71.6 °F 69.8 °F 94% 29.88 in 7.0 mi SSW 5.8 mph - N/A   Overcast
6:55 AM 71.6 °F 69.8 °F 94% 29.89 in 7.0 mi SSW 6.9 mph - N/A   Overcast
7:15 AM 71.6 °F 69.8 °F 94% 29.88 in 7.0 mi SSW 5.8 mph - N/A Thunderstorm Overcast
7:35 AM 71.6 °F 69.8 °F 94% 29.89 in 7.0 mi SSW 5.8 mph - N/A   Overcast
7:55 AM 71.6 °F 69.8 °F 94% 29.88 in 7.0 mi SSW 6.9 mph - N/A   Overcast
8:15 AM 71.6 °F 69.8 °F 94% 29.88 in 7.0 mi SSW 10.4 mph - N/A Thunderstorm Mostly Cloudy
8:35 AM 71.6 °F 69.8 °F 94% 29.89 in 7.0 mi South 8.1 mph - N/A   Overcast
9:15 AM 71.6 °F 69.8 °F 94% 29.91 in 10.0 mi SSW 8.1 mph - N/A   Overcast
9:35 AM 64.4 °F 62.6 °F 94% 29.93 in 10.0 mi NNW 12.7 mph 21.9 mph N/A   Overcast
9:55 AM 62.6 °F 62.6 °F 100% 29.94 in 0.8 mi WNW 6.9 mph - N/A Rain , Thunderstorm Heavy Thunderstorms and Rain
10:15 AM 62.6 °F 62.6 °F 100% 29.94 in 1.8 mi Calm Calm - N/A Rain Heavy Rain
10:35 AM 62.6 °F 62.6 °F 100% 29.95 in 1.0 mi Calm Calm - N/A Rain Heavy Rain
10:55 AM 62.6 °F 62.6 °F 100% 29.95 in 1.8 mi Calm Calm - N/A Rain Heavy Rain
11:15 AM 62.6 °F 62.6 °F 100% 29.95 in 1.2 mi Calm Calm - N/A Rain Heavy Rain
11:35 AM 64.4 °F 62.6 °F 94% 29.95 in 1.5 mi Calm Calm - N/A Rain Heavy Rain
11:55 AM 64.4 °F 62.6 °F 94% 29.94 in 4.0 mi WSW 3.5 mph - N/A Rain Rain
12:15 PM 64.4 °F 62.6 °F 94% 29.93 in 7.0 mi Calm Calm - N/A Rain Light Rain
12:35 PM 64.4 °F 62.6 °F 94% 29.90 in 10.0 mi SSE 5.8 mph - N/A   Scattered Clouds
1:15 PM 64.4 °F 64.4 °F 100% 29.88 in 10.0 mi SSE 3.5 mph - N/A   Scattered Clouds
1:35 PM 68.0 °F 64.4 °F 88% 29.89 in 10.0 mi Calm Calm - N/A   Scattered Clouds
1:55 PM 68.0 °F 64.4 °F 88% 29.88 in 10.0 mi Calm Calm - N/A   Mostly Cloudy
2:15 PM 69.8 °F 68.0 °F 94% 29.87 in 10.0 mi Calm Calm - N/A   Overcast
2:35 PM 69.8 °F 66.2 °F 88% 29.86 in 10.0 mi Calm Calm - N/A   Overcast
2:55 PM 69.8 °F 68.0 °F 94% 29.86 in 10.0 mi South 3.5 mph - N/A Rain Light Rain
3:15 PM 69.8 °F 68.0 °F 94% 29.85 in 7.0 mi Calm Calm - N/A Rain Rain
3:35 PM 69.8 °F 68.0 °F 94% 29.84 in 10.0 mi Calm Calm - N/A Rain Light Rain
3:55 PM 68.0 °F 66.2 °F 94% 29.84 in 10.0 mi Calm Calm - N/A Rain Light Rain
4:15 PM 68.0 °F 64.4 °F 88% 29.85 in 7.0 mi Calm Calm - N/A Rain , Thunderstorm Light Thunderstorms and Rain
4:35 PM 68.0 °F 66.2 °F 94% 29.87 in 1.5 mi South 9.2 mph - N/A Rain , Thunderstorm Heavy Thunderstorms and Rain
4:55 PM 62.6 °F 60.8 °F 94% 29.83 in 4.0 mi SSE 4.6 mph - N/A Rain , Thunderstorm Thunderstorms and Rain
5:15 PM 62.6 °F 60.8 °F 94% 29.85 in 10.0 mi SSE 8.1 mph - N/A Rain , Thunderstorm Light Thunderstorms and Rain
5:35 PM 62.6 °F 60.8 °F 94% 29.87 in 7.0 mi SSW 3.5 mph - N/A Rain , Thunderstorm Rain
6:15 PM 62.6 °F 62.6 °F 100% 29.88 in 2.5 mi WSW 3.5 mph - N/A Rain Rain
6:35 PM 62.6 °F 62.6 °F 100% 29.87 in 7.0 mi Calm Calm - N/A Rain Rain
6:55 PM 62.6 °F 62.6 °F 100% 29.90 in 10.0 mi SSW 4.6 mph - N/A Rain Light Rain
7:15 PM 62.6 °F 62.6 °F 100% 29.88 in 7.0 mi Calm Calm - N/A Rain Light Rain
7:35 PM 62.6 °F 62.6 °F 100% 29.85 in 5.0 mi ESE 8.1 mph - N/A Rain Rain
7:55 PM 62.6 °F 62.6 °F 100% 29.83 in 7.0 mi SSE 9.2 mph - N/A Rain Light Rain
8:15 PM 62.6 °F 62.6 °F 100% 29.82 in 7.0 mi SSE 5.8 mph - N/A   Light Drizzle
8:35 PM 62.6 °F 62.6 °F 100% 29.82 in 10.0 mi SSE 3.5 mph - N/A Rain Light Rain
8:55 PM 62.6 °F 62.6 °F 100% 29.84 in 10.0 mi Calm Calm - N/A   Mostly Cloudy
9:15 PM 62.6 °F 62.6 °F 100% 29.85 in 10.0 mi Calm Calm - N/A   Scattered Clouds
9:35 PM 62.6 °F 62.6 °F 100% 29.85 in 10.0 mi Calm Calm - N/A   Scattered Clouds
9:55 PM 62.6 °F 62.6 °F 100% 29.86 in 7.0 mi South 3.5 mph - N/A   Clear
10:15 PM 62.6 °F 62.6 °F 100% 29.87 in 7.0 mi Calm Calm - N/A   Scattered Clouds
10:35 PM 62.6 °F 62.6 °F 100% 29.90 in 10.0 mi WNW 9.2 mph - N/A   Mostly Cloudy
10:55 PM 62.6 °F 62.6 °F 100% 29.90 in 3.0 mi WNW 9.2 mph - N/A   Overcast
11:15 PM 62.6 °F 60.8 °F 94% 29.90 in 0.5 mi NW 10.4 mph - N/A Fog Fog
11:35 PM 59.0 °F 59.0 °F 100% 29.91 in 0.5 mi NNW 10.4 mph 17.3 mph N/A Fog Fog
11:55 PM 59.0 °F 59.0 °F 100% 29.92 in 1.0 mi NNW 12.7 mph - N/A   Overcast